Location: Unspecified
(0.0000°N, 0.0000°E)
Time: 10:54:35
(UTC+00:00)

Explorer 11/Cluster Stage 4 - Pass Details

Date: 09 October 2020
Orbit: 467 x 1258 km, 28.8° (Epoch: 28 October)

Event Time Altitude Azimuth Distance (km) Brightness Sun altitude
Rises 06:19:51 0° 266° (W) 3,843 9.5 8.1°
Reaches altitude 10° 06:23:12 10° 251° (WSW) 3,004 9.0 8.9°
Maximum altitude 06:28:49 22° 204° (SSW) 2,369 8.9 10.3°
Drops below altitude 10° 06:34:49 10° 157° (SSE) 3,226 10.2 11.8°
Sets 06:38:36 0° 142° (SE) 4,200 11.0 12.8°
